User: anonymous   Login
Location: Edinburgh
(55.9500°N, 3.1600°W)
Time: 14:42:47
(UTC+01:00)
Language:

CUBEBUG 2 - Orbit

View from above orbital plane
View from above orbital plane
View from above satellite
View from above satellite

Ground track
Ground track

The orbit data is extracted from the following two-line orbital elements,

1 39440U 13066AA  18202.11190496  .00000186  00000-0  32717-4 0  9999
2 39440  97.6003 215.3315 0082093  85.4841 275.5741 14.75693740250924
Epoch (UTC): 21 July 2018 02:41:08
Eccentricity: 0.0082093
inclination: 97.6003°
perigee height: 585 km
apogee height: 700 km
right ascension of ascending node: 215.3315°
argument of perigee: 85.4841°
revolutions per day: 14.75693740
mean anomaly at epoch: 275.5741°
orbit number at epoch: 25092

The dashed part of the orbit path shows where the satellite is in the earth's shadow,  

DLR